[[{"header":{"parameterUnit":"m.s-1","parameterCategory":1,"la1":30.2991,"la2":30.254,"lo1":-89.0895,"lo2":-89.0444,"dy":0.0017,"dx":0.0017,"nx":28,"ny":28,"refTime":"2024-02-17T03:00:00:Z","depth":0,"parameterNumber":2,"parameterNumberName":"U-component_of_WINDS"},"data":[0,0,0,0,0,0,0,0,0,0,0,0,0,0,0,0,0,0,0,0,0,0,0,0,0,0,0,0,0,0,0,0,0,0,0,0,0,0,0,0,0,0,0,0,0,0,0,0,0,0,0,0,0,0,0,0,0,0,1.5371,1.5372,0,1.539,1.539,1.539,1.5377,1.5376,1.5376,1.5375,1.5395,1.5396,1.5398,0,0,0,0,0,0,0,0,0,0,0,0,0,1.5327,1.5328,1.5371,1.5372,1.5372,1.539,1.539,1.539,1.5377,1.5376,1.5375,1.5375,1.5395,1.5396,1.5398,0,0,0,0,0,0,0,0,0,0,0,0,0,1.5346,1.5328,1.5371,1.5367,1.5367,1.539,1.539,1.539,1.5377,1.5376,1.5375,1.5374,1.5395,1.5396,1.5398,1.5426,0,0,1.5403,1.5404,0,0,0,0,0,0,0,0,1.5345,1.5348,1.5368,1.5368,1.5367,1.538,1.5382,1.5402,1.5377,1.5373,1.5375,1.5374,1.5391,1.5393,1.5399,1.5427,1.5428,1.5403,1.5404,1.5405,1.5405,0,0,0,0,0,0,0,1.5344,1.5347,1.5379,1.5368,1.5368,1.5365,1.5367,1.5386,1.5387,1.5374,1.5373,1.5375,1.5391,1.5397,1.5399,1.5428,1.5403,1.5404,1.5405,1.5406,1.5482,1.5483,0,0,0,0,0,0,1.5342,1.5346,1.5378,1.5379,1.5354,1.5367,1.5369,1.5377,1.5387,1.5387,1.5376,1.5374,1.5395,1.5397,1.54,1.5434,1.5405,1.5406,1.5407,1.5481,1.5482,1.5483,0,0,0,0,0,0,1.5341,1.5345,1.5377,1.5362,1.5366,1.5369,1.5378,1.5378,1.5384,1.5388,1.5389,1.5381,1.5394,1.5397,1.542,1.5434,1.5407,1.5409,1.548,1.5481,1.5483,1.5502,0,0,0,0,0,0,1.534,1.5345,1.5355,1.5363,1.5367,1.5397,1.5379,1.5379,1.5386,1.5385,1.5394,1.5395,1.5394,1.5417,1.5421,1.5436,1.541,1.5479,1.5481,1.5482,1.55,1.5504,1.5508,0,0,0,0,0,1.5339,1.536,1.5356,1.536,1.538,1.5397,1.54,1.5398,1.5388,1.5398,1.5402,1.5394,1.5432,1.542,1.5424,1.544,1.5478,1.548,1.5482,1.5499,1.5504,1.5508,0,0,0,0,0,0,1.5354,1.5361,1.5356,1.538,1.5388,1.5395,1.5408,1.5403,1.5414,1.5412,1.541,1.5412,1.5436,1.544,1.5426,1.5468,1.5453,1.5457,1.5464,1.5469,1.5473,1.5471,1.5411,0,0,0,0,0,1.536,1.5374,1.5379,1.54,1.5404,1.5406,1.5413,1.5411,1.542,1.5423,1.5428,1.5437,1.5451,1.546,1.5473,1.5501,1.5503,1.5514,1.5518,1.5521,1.5524,1.554,1.5545,1.5491,1.5491,1.5491,0,0,1.5374,1.5379,1.5387,1.5403,1.5409,1.5424,1.5409,1.5425,1.5436,1.5426,1.5447,1.5451,1.5461,1.5487,1.5498,1.5491,1.5539,1.5524,1.5526,1.5527,1.5543,1.5548,1.5552,1.5493,1.5492,1.5492,0,0,1.5405,1.541,1.5428,1.5435,1.5444,1.5445,1.545,1.5457,1.546,1.5481,1.5474,1.5488,1.5512,1.552,1.5527,1.5563,1.5557,1.5567,1.5586,1.5602,1.5606,1.561,1.5623,1.5628,1.557,1.557,1.557,0,1.542,1.5441,1.5438,1.5455,1.5463,1.5455,1.5474,1.548,1.5494,1.55,1.5491,1.5522,1.5528,1.5556,1.5565,1.5571,1.5576,1.5566,1.5606,1.561,1.5613,1.5626,1.5631,1.5571,1.5571,1.5571,1.5571,0,1.546,1.5475,1.5489,1.5502,1.5511,1.5529,1.553,1.554,1.5537,1.554,1.5562,1.557,1.5584,1.5591,1.5589,1.5619,1.5614,1.5606,1.5591,1.5619,1.5631,1.5636,1.5573,1.5573,1.5572,1.5572,0,0,1.55,1.5513,1.5518,1.5524,1.5534,1.5546,1.5565,1.5579,1.5588,1.5598,1.5614,1.5635,1.5628,1.5636,1.5634,1.5648,1.5677,1.5638,1.5639,1.5646,1.5712,1.5718,1.5724,1.5673,1.5674,1.5675,1.5711,0,1.5533,1.5564,1.5562,1.5592,1.5606,1.5599,1.5615,1.5624,1.5627,1.564,1.5644,1.5659,1.5648,1.5653,1.5666,1.5671,1.569,1.5668,1.5689,1.5689,1.5686,1.573,1.5736,1.577,1.5716,1.5717,1.5717,0,1.5574,1.5585,1.5616,1.5625,1.5631,1.5646,1.5659,1.5672,1.5682,1.5684,1.5693,1.569,1.571,1.5694,1.5722,1.5707,1.5715,1.5719,1.572,1.5722,1.5705,1.5733,1.578,1.5785,1.5724,1.5724,1.5723,0,1.5601,1.5624,1.5646,1.5652,1.5663,1.5673,1.5678,1.5688,1.5697,1.5709,1.5715,1.573,1.5738,1.575,1.5751,1.574,1.5779,1.5764,1.5781,1.5781,1.5789,1.5789,1.5839,1.5795,1.5795,1.5795,1.5795,0,1.5637,1.5657,1.5658,1.5672,1.5694,1.5693,1.5714,1.5719,1.5727,1.5742,1.5737,1.5751,1.5752,1.5767,1.5768,1.5791,1.5795,1.5797,1.5797,1.5797,1.5797,1.5803,1.5801,1.5796,1.5796,1.5796,1.5795,0,1.5671,1.5673,1.5696,1.5705,1.5708,1.5724,1.5732,1.5745,1.5748,1.5767,1.5771,1.5776,1.5793,1.5796,1.5816,1.5817,1.5845,1.5842,1.5841,1.5841,1.5858,1.5857,1.5914,1.5922,1.5872,1.5873,1.5873,0,1.5694,1.5709,1.572,1.5729,1.5735,1.575,1.5759,1.5759,1.577,1.5783,1.5795,1.5812,1.5825,1.5853,1.5859,1.5875,1.5873,1.5892,1.5875,1.5875,1.5873,1.5873,1.5874,1.5895,1.5895,1.5896,1.5896,0,1.5735,1.5735,1.5749,1.5763,1.5774,1.5786,1.5796,1.5804,1.5806,1.5818,1.5835,1.5846,1.5867,1.5884,1.59,1.5906,1.5902,1.5902,1.5906,1.5907,1.5906,1.5907,1.585,1.59,1.59,1.5899,1.5899,1.5899,1.5764,1.5777,1.5787,1.5803,1.5811,1.5821,1.5834,1.5839,1.5853,1.587,1.5869,1.5889,1.59,1.5921,1.5928,1.5944,1.5938,1.5945,1.5947,1.5949,1.5951,1.5903,1.5947,1.5947,1.5947,1.5947,1.5947,0,1.5805,1.5811,1.5825,1.584,1.5853,1.5848,1.586,1.5871,1.5888,1.5898,1.5912,1.5932,1.5949,1.5956,1.5973,1.5985,1.5983,1.5989,1.5988,1.599,1.5955,1.5949,1.599,1.599,1.599,1.599,1.599,1.599,1.5828,1.585,1.5851,1.5878,1.5884,1.5903,1.591,1.592,1.5929,1.5952,1.5966,1.597,1.598,1.5998,1.6013,1.6015,1.6021,1.6028,1.6029,1.5997,1.5992,1.5988,1.5982,1.603,1.603,1.6063,1.6063,1.6063]},{"header":{"parameterUnit":"m.s-1","parameterCategory":1,"la1":30.2991,"la2":30.254,"lo1":-89.0895,"lo2":-89.0444,"dy":0.0017,"dx":0.0017,"nx":28,"ny":28,"refTime":"2024-02-17T03:00:00:Z","depth":0,"parameterNumber":3,"parameterNumberName":"V-component_of_WINDS"},"data":[0,0,0,0,0,0,0,0,0,0,0,0,0,0,0,0,0,0,0,0,0,0,0,0,0,0,0,0,0,0,0,0,0,0,0,0,0,0,0,0,0,0,0,0,0,0,0,0,0,0,0,0,0,0,0,0,0,0,-0.3324,-0.3324,0,-0.3331,-0.3331,-0.3331,-0.3321,-0.3321,-0.3321,-0.332,-0.3329,-0.3329,-0.333,0,0,0,0,0,0,0,0,0,0,0,0,0,-0.3303,-0.3304,-0.3324,-0.3324,-0.3324,-0.3331,-0.3331,-0.3331,-0.3322,-0.3321,-0.3321,-0.332,-0.3328,-0.3329,-0.333,0,0,0,0,0,0,0,0,0,0,0,0,0,-0.3312,-0.3304,-0.3324,-0.332,-0.332,-0.3331,-0.3331,-0.3331,-0.3322,-0.3321,-0.3321,-0.332,-0.3328,-0.3329,-0.333,-0.3345,0,0,-0.3332,-0.3333,0,0,0,0,0,0,0,0,-0.3311,-0.3312,-0.3321,-0.332,-0.332,-0.3325,-0.3327,-0.3336,-0.3322,-0.3321,-0.332,-0.332,-0.3328,-0.3329,-0.3331,-0.3346,-0.3346,-0.3332,-0.3333,-0.3333,-0.3333,0,0,0,0,0,0,0,-0.3311,-0.3312,-0.3327,-0.3321,-0.332,-0.3318,-0.3319,-0.3329,-0.3327,-0.3321,-0.332,-0.3321,-0.3328,-0.333,-0.3331,-0.3346,-0.3332,-0.3333,-0.3334,-0.3334,-0.3375,-0.3375,0,0,0,0,0,0,-0.331,-0.3312,-0.3326,-0.3327,-0.3314,-0.3319,-0.332,-0.3324,-0.3327,-0.3327,-0.3322,-0.3321,-0.3329,-0.333,-0.3332,-0.3351,-0.3333,-0.3334,-0.3334,-0.3374,-0.3375,-0.3376,0,0,0,0,0,0,-0.331,-0.3312,-0.3326,-0.3319,-0.3321,-0.332,-0.3325,-0.3324,-0.3327,-0.3328,-0.3327,-0.3325,-0.3329,-0.333,-0.3342,-0.3351,-0.3334,-0.3335,-0.3374,-0.3374,-0.3375,-0.3388,0,0,0,0,0,0,-0.3309,-0.3312,-0.3317,-0.3319,-0.3321,-0.3336,-0.3325,-0.3325,-0.3328,-0.3327,-0.333,-0.333,-0.3329,-0.3341,-0.3343,-0.3352,-0.3336,-0.3373,-0.3374,-0.3375,-0.3387,-0.339,-0.3392,0,0,0,0,0,-0.3309,-0.3321,-0.3317,-0.3319,-0.3328,-0.3337,-0.3338,-0.3335,-0.3329,-0.3335,-0.3335,-0.333,-0.3349,-0.3342,-0.3344,-0.3353,-0.3372,-0.3374,-0.3375,-0.3386,-0.3389,-0.3392,0,0,0,0,0,0,-0.332,-0.3321,-0.3317,-0.333,-0.3334,-0.3335,-0.3342,-0.3338,-0.3344,-0.3343,-0.3339,-0.334,-0.3353,-0.3354,-0.3346,-0.3369,-0.336,-0.3362,-0.3368,-0.3371,-0.3373,-0.3372,-0.3336,0,0,0,0,0,-0.3324,-0.333,-0.3331,-0.3342,-0.3344,-0.3343,-0.3347,-0.3344,-0.3348,-0.3349,-0.3351,-0.3354,-0.3361,-0.3366,-0.3372,-0.3387,-0.3388,-0.3395,-0.3397,-0.3399,-0.3401,-0.341,-0.3413,-0.338,-0.338,-0.338,0,0,-0.3332,-0.3333,-0.3338,-0.3345,-0.3347,-0.3354,-0.3344,-0.3352,-0.3358,-0.3351,-0.3362,-0.3363,-0.3367,-0.3381,-0.3387,-0.3382,-0.341,-0.34,-0.3402,-0.3403,-0.3411,-0.3414,-0.3417,-0.3381,-0.3381,-0.3381,0,0,-0.3351,-0.3352,-0.3362,-0.3365,-0.3368,-0.3367,-0.337,-0.3372,-0.3373,-0.3384,-0.3379,-0.3386,-0.3397,-0.3401,-0.3404,-0.3425,-0.3421,-0.3427,-0.3439,-0.3448,-0.345,-0.3453,-0.3461,-0.3464,-0.3429,-0.3429,-0.3429,0,-0.3361,-0.3371,-0.3368,-0.3377,-0.338,-0.3373,-0.3384,-0.3387,-0.3392,-0.3395,-0.339,-0.3405,-0.3407,-0.3422,-0.3427,-0.343,-0.3433,-0.3427,-0.345,-0.3453,-0.3455,-0.3463,-0.3466,-0.343,-0.3429,-0.3429,-0.3429,0,-0.3384,-0.3391,-0.3399,-0.3405,-0.3409,-0.3419,-0.3417,-0.3422,-0.3419,-0.342,-0.3432,-0.3434,-0.3441,-0.3444,-0.3442,-0.3459,-0.3456,-0.3451,-0.3441,-0.3459,-0.3466,-0.3469,-0.3431,-0.343,-0.343,-0.343,0,0,-0.341,-0.3414,-0.3417,-0.3419,-0.3423,-0.3429,-0.3439,-0.3445,-0.345,-0.3454,-0.3463,-0.3473,-0.3468,-0.3472,-0.347,-0.3477,-0.3495,-0.3471,-0.3471,-0.3476,-0.3515,-0.352,-0.3523,-0.3492,-0.3493,-0.3493,-0.3515,0,-0.343,-0.3446,-0.3443,-0.3459,-0.3467,-0.3461,-0.3469,-0.3473,-0.3473,-0.348,-0.348,-0.3488,-0.348,-0.3483,-0.349,-0.3491,-0.3503,-0.3489,-0.3501,-0.3501,-0.3501,-0.3527,-0.3532,-0.3553,-0.3518,-0.3518,-0.3519,0,-0.3455,-0.346,-0.3477,-0.348,-0.3483,-0.349,-0.3497,-0.3503,-0.3507,-0.3507,-0.3511,-0.3508,-0.3518,-0.3509,-0.3523,-0.3514,-0.3519,-0.352,-0.3521,-0.3522,-0.3511,-0.353,-0.3559,-0.3563,-0.3523,-0.3523,-0.3522,0,-0.3473,-0.3484,-0.3496,-0.3498,-0.3502,-0.3508,-0.351,-0.3513,-0.3517,-0.3523,-0.3526,-0.3533,-0.3537,-0.3543,-0.3542,-0.3534,-0.3557,-0.3547,-0.3558,-0.3558,-0.3563,-0.3563,-0.3595,-0.3565,-0.3565,-0.3565,-0.3565,0,-0.3496,-0.3507,-0.3505,-0.3512,-0.3524,-0.3521,-0.3533,-0.3534,-0.3537,-0.3545,-0.354,-0.3548,-0.3546,-0.3553,-0.3553,-0.3565,-0.3567,-0.3568,-0.3568,-0.3569,-0.3569,-0.3572,-0.3571,-0.3566,-0.3565,-0.3565,-0.3565,0,-0.3519,-0.3518,-0.353,-0.3533,-0.3534,-0.3543,-0.3545,-0.3552,-0.3552,-0.3562,-0.3564,-0.3565,-0.3573,-0.3573,-0.3583,-0.3582,-0.3599,-0.3596,-0.3597,-0.3597,-0.3608,-0.3608,-0.3644,-0.3649,-0.3615,-0.3615,-0.3615,0,-0.3534,-0.3542,-0.3546,-0.355,-0.3553,-0.356,-0.3565,-0.3562,-0.3567,-0.3573,-0.358,-0.3588,-0.3595,-0.3609,-0.3611,-0.3618,-0.3617,-0.3629,-0.3618,-0.3619,-0.3618,-0.3618,-0.3619,-0.3631,-0.3632,-0.3632,-0.3632,0,-0.3561,-0.356,-0.3567,-0.3573,-0.3579,-0.3584,-0.3589,-0.3593,-0.3591,-0.3597,-0.3606,-0.3611,-0.3621,-0.363,-0.3638,-0.364,-0.3636,-0.3636,-0.3639,-0.364,-0.3641,-0.3642,-0.3604,-0.3635,-0.3635,-0.3634,-0.3634,-0.3634,-0.3581,-0.3589,-0.3592,-0.36,-0.3603,-0.3607,-0.3615,-0.3615,-0.3623,-0.3631,-0.3629,-0.3639,-0.3644,-0.3653,-0.3657,-0.3665,-0.3661,-0.3665,-0.3667,-0.3668,-0.367,-0.3639,-0.3666,-0.3666,-0.3666,-0.3666,-0.3666,0,-0.3609,-0.3611,-0.3618,-0.3625,-0.3631,-0.3626,-0.3631,-0.3637,-0.3646,-0.365,-0.3657,-0.3667,-0.3676,-0.3678,-0.3687,-0.3693,-0.3692,-0.3695,-0.3695,-0.3696,-0.3672,-0.3669,-0.3696,-0.3696,-0.3696,-0.3696,-0.3696,-0.3696,-0.3624,-0.3636,-0.3636,-0.365,-0.3652,-0.3662,-0.3665,-0.367,-0.3673,-0.3685,-0.3692,-0.3693,-0.3697,-0.3706,-0.3714,-0.3714,-0.3718,-0.3723,-0.3723,-0.3701,-0.3698,-0.3695,-0.3692,-0.3723,-0.3724,-0.3746,-0.3746,-0.3746]}]]